SCP
0 0 0 0 0 0 0 0 0 0 0 0 0 0 0 0 0 0 0 0 0 0
0 0 0 0 0 0 0 0 0 0 0 0 0 0 0 0 0 0 0 0 0 0
0 0 0 0 0 0 0 0 0 0 0 0 0 0 0 0 0 0 0 0 0 0
0 0 0 0 0 0 0 0 0 0 0 0 0 0 0 0 0 0 0 0 0 0
0 0 0 0 0 0 0 0 0 0 0 0 0 0 0 0 0 0 0 0 0 0
0 0 0 0 0 0 0 0 0 0 0 0 0 0 0 0 0 0 0 0 0 0
0 0 0 0 0 0 0 0 0 0 0 0 0 0 0 0 0 0 0 0 0 0
0 0 0 0 0 0 0 0 0 0 0 0 0 0 0 0 0 0 0 0 0 0
0 0 0 0 0 0 0 0 0 0 0 0 0 0 0 0 0 0 0 0 0 0
0 0 0 0 0 0 0 0 0 0 0 0 0 0 0 0 0 0 0 0 0 0
0 0 0 0 0 0 0 0 0 0 0 0 0 0 0 0 0 0 0 0 0 0
0 0 0 0 0 0 0 0 0 0 0 0 0 0 0 0 0 0 0 0 0 0
0 0 0 0 0 0 0 0 0 0 0 0 0 0 0 0 0 0 0 0 0 0
0 0 0 0 0 0 0 0 0 0 0 0 0 0 0 0 0 0 0 0 0 0
Wind_Speed_500mb
83 83 81 78 79 76 75 77 75 71 71 68 72 71 72 73 73 70 62 57 52 47
88 83 82 80 80 73 74 74 70 74 71 72 73 73 75 75 72 67 62 57 50 42
84 82 81 77 83 77 75 73 74 75 75 76 76 80 79 75 71 68 63 55 47 39
82 81 78 78 84 82 77 76 79 78 75 76 80 83 80 75 72 68 61 54 46 38
75 79 81 83 84 84 80 79 79 82 80 81 84 86 83 80 74 67 61 53 47 38
72 81 85 84 83 85 82 80 84 86 88 88 89 91 85 77 72 66 58 51 45 38
70 80 82 79 82 84 82 80 85 87 89 90 92 91 86 80 73 65 58 52 44 33
69 78 81 81 82 83 81 79 81 87 91 93 95 95 91 83 75 68 63 56 44 40
72 80 85 82 82 84 82 81 82 88 94 97 99 98 90 83 77 71 65 56 48 42
76 79 83 85 80 86 85 81 82 86 93 97 99 98 92 84 77 72 68 61 46 46
77 78 81 86 84 88 89 86 84 88 92 97 101 99 90 82 75 71 65 61 52 61
73 77 81 85 87 89 88 87 90 90 93 100 101 93 87 81 75 69 66 60 65 64
65 70 74 77 80 81 82 83 86 88 92 94 85 86 84 79 73 69 69 67 74 70
49 52 57 62 69 73 76 78 77 80 77 71 77 80 81 75 73 74 67 76 73 70
Wind_Direction_500mb
232 233 229 228 227 225 228 228 226 229 227 226 225 221 217 213 212 214 220 218 221 219
234 234 230 228 226 227 228 227 230 228 228 225 223 217 212 212 213 214 215 215 214 212
236 234 231 226 224 226 228 228 228 227 226 224 220 215 212 212 211 212 211 210 209 206
235 233 231 225 223 225 229 228 230 225 224 225 220 213 211 210 210 209 208 205 203 200
235 233 232 227 225 226 225 229 228 226 223 221 218 213 210 209 208 208 207 205 200 196
234 232 233 230 226 226 225 227 226 226 225 220 216 213 211 210 210 209 207 204 198 190
239 235 235 232 226 227 226 230 229 229 226 222 218 214 211 209 208 207 203 199 194 201
243 237 236 233 227 228 229 233 232 230 224 220 217 215 212 210 207 205 202 197 196 221
244 239 235 234 228 228 229 232 231 229 225 220 217 216 214 212 208 205 204 201 206 235
247 242 236 234 231 228 229 232 233 230 226 222 219 215 213 210 209 208 204 204 218 260
248 244 237 234 232 230 228 229 233 234 229 223 219 215 212 211 208 208 208 215 239 267
250 244 239 235 231 229 229 231 231 232 229 223 218 214 212 212 210 208 213 226 251 266
250 245 241 238 236 234 233 233 233 232 226 222 216 215 215 214 213 213 218 242 255 268
249 246 243 239 235 234 231 232 231 231 226 213 214 218 219 217 217 217 236 249 258 268
Wind_Speed_850mb
83 83 81 78 79 76 75 77 75 71 71 68 72 71 72 73 73 70 62 57 52 47
88 83 82 80 80 73 74 74 70 74 71 72 73 73 75 75 72 67 62 57 50 42
84 82 81 77 83 77 75 73 74 75 75 76 76 80 79 75 71 68 63 55 47 39
82 81 78 78 84 82 77 76 79 78 75 76 80 83 80 75 72 68 61 54 46 38
75 79 81 83 84 84 80 79 79 82 80 81 84 86 83 80 74 67 61 53 47 38
72 81 85 84 83 85 82 80 84 86 88 88 89 91 85 77 72 66 58 51 45 38
70 80 82 79 82 84 82 80 85 87 89 90 92 91 86 80 73 65 58 52 44 33
69 78 81 81 82 83 81 79 81 87 91 93 95 95 91 83 75 68 63 56 44 40
72 80 85 82 82 84 82 81 82 88 94 97 99 98 90 83 77 71 65 56 48 42
76 79 83 85 80 86 85 81 82 86 93 97 99 98 92 84 77 72 68 61 46 46
77 78 81 86 84 88 89 86 84 88 92 97 101 99 90 82 75 71 65 61 52 61
73 77 81 85 87 89 88 87 90 90 93 100 101 93 87 81 75 69 66 60 65 64
65 70 74 77 80 81 82 83 86 88 92 94 85 86 84 79 73 69 69 67 74 70
49 52 57 62 69 73 76 78 77 80 77 71 77 80 81 75 73 74 67 76 73 70
Wind_Direction_850mb
232 233 229 228 227 225 228 228 226 229 227 226 225 221 217 213 212 214 220 218 221 219
234 234 230 228 226 227 228 227 230 228 228 225 223 217 212 212 213 214 215 215 214 212
236 234 231 226 224 226 228 228 228 227 226 224 220 215 212 212 211 212 211 210 209 206
235 233 231 225 223 225 229 228 230 225 224 225 220 213 211 210 210 209 208 205 203 200
235 233 232 227 225 226 225 229 228 226 223 221 218 213 210 209 208 208 207 205 200 196
234 232 233 230 226 226 225 227 226 226 225 220 216 213 211 210 210 209 207 204 198 190
239 235 235 232 226 227 226 230 229 229 226 222 218 214 211 209 208 207 203 199 194 201
243 237 236 233 227 228 229 233 232 230 224 220 217 215 212 210 207 205 202 197 196 221
244 239 235 234 228 228 229 232 231 229 225 220 217 216 214 212 208 205 204 201 206 235
247 242 236 234 231 228 229 232 233 230 226 222 219 215 213 210 209 208 204 204 218 260
248 244 237 234 232 230 228 229 233 234 229 223 219 215 212 211 208 208 208 215 239 267
250 244 239 235 231 229 229 231 231 232 229 223 218 214 212 212 210 208 213 226 251 266
250 245 241 238 236 234 233 233 233 232 226 222 216 215 215 214 213 213 218 242 255 268
249 246 243 239 235 234 231 232 231 231 226 213 214 218 219 217 217 217 236 249 258 268